Location: Tierz
(42.1336°N, 0.3549°W)
Time: 18:21:55
(UTC+00:00)

CZ-2C R/B - Pass Details

Date: 29 October 2020
Orbit: 703 x 909 km, 98.1° (Epoch: 03 December)

Event Time Altitude Azimuth Distance (km) Brightness Sun altitude
Rises 17:35:18 0° 130° (SE) 3,521 6.1 -7.4°
Reaches altitude 10° 17:38:07 10° 118° (ESE) 2,573 5.3 -7.9°
Maximum altitude 17:42:43 26° 65° (ENE) 1,691 4.2 -8.8°
Drops below altitude 10° 17:47:14 10° 12° (NNE) 2,514 5.5 -9.6°
Sets 17:49:56 0° 360° (N) 3,424 6.3 -10.1°
